Location: Goudex
(43.3760°N, 0.9543°E)
Time: 09:10:15
(UTC+00:00)

ATLAS 2AS CENTAUR R/B - Pass Details

Date: 20 November 2019
Orbit: 926 x 1286 km, 63.7° (Epoch: 02 December)

Event Time Altitude Azimuth Distance (km) Brightness Sun altitude
Exits shadow 04:58:28 25° 317° (NW) 2,219 3.9 -21.0°
Maximum altitude 05:03:12 71° 239° (WSW) 1,207 2.8 -20.2°
Drops below altitude 10° 05:10:06 10° 157° (SSE) 2,903 5.4 -18.9°
Sets 05:12:37 0° 155° (SSE) 3,805 6.1 -18.5°
